Dewpoint
9 10 12 14 14 13 12 12 14 14 13 12 12 12 12 12 12 12 12 12 12 11 11 11 12 12 12 13 13 14 14 14 14 16 18 18 17 17 17 16 16 16 16 17 17 18 18 19 20 21 21 21 21 21 22 22 22 23 25 27 29 31 32 31 30 29 29 30 31
9 11 12 14 14 13 12 12 12 13 13 12 12 12 12 12 12 12 12 12 12 12 12 12 12 12 12 13 13 14 14 14 14 16 17 18 17 17 17 16 16 16 16 17 17 18 18 20 21 21 21 21 22 22 22 22 22 24 26 27 30 31 30 29 29 29 29 30 31
9 10 10 11 11 10 10 11 11 11 12 12 12 12 12 12 12 12 12 12 12 12 12 11 11 12 12 13 13 13 14 14 15 16 17 17 17 17 17 16 16 16 17 17 17 18 18 20 21 22 22 21 22 22 22 23 24 26 27 28 29 29 28 28 28 29 30 31 31
9 10 10 10 10 10 10 10 11 11 12 12 12 12 12 12 12 12 12 12 12 12 12 11 11 12 12 13 13 13 14 15 16 16 17 17 17 17 17 17 17 17 17 17 18 18 18 20 21 21 21 22 22 22 23 23 25 26 27 28 28 27 27 27 28 29 30 30 32
10 10 10 10 10 10 10 11 11 11 12 12 12 12 12 11 11 11 12 12 12 12 12 12 12 12 12 13 13 13 14 15 18 18 17 17 17 17 17 17 17 17 17 18 18 18 18 20 20 20 21 22 22 23 23 25 26 26 27 27 27 27 27 27 28 29 30 31 32
10 10 10 10 10 10 10 11 11 12 12 12 12 12 12 11 12 12 12 12 12 13 13 14 14 14 14 13 13 13 14 14 16 16 16 16 16 17 17 17 17 17 17 18 18 18 18 19 19 20 20 21 21 22 23 25 25 26 26 26 26 26 27 27 28 29 30 30 31
10 10 10 10 10 10 11 11 12 12 12 12 12 12 12 12 12 12 13 13 13 14 14 15 15 14 14 13 13 14 14 14 15 15 16 16 16 16 17 17 17 17 17 18 18 18 18 19 19 20 20 22 22 22 23 25 25 25 25 25 25 26 27 27 28 29 29 29 29
11 11 11 11 11 11 11 12 12 12 12 12 12 12 12 12 13 13 14 14 14 14 15 15 14 14 14 14 14 14 14 14 15 15 15 16 16 16 16 16 17 17 17 17 18 18 18 19 19 20 21 21 21 22 23 25 25 25 25 25 26 26 27 28 28 28 28 28 29
11 11 11 11 11 11 12 12 12 13 13 13 13 12 13 14 14 14 14 14 15 16 16 15 15 14 14 14 14 14 15 15 15 15 15 15 15 16 16 16 17 17 17 18 18 18 18 19 20 20 21 21 22 23 24 25 26 26 26 26 26 26 27 27 28 28 28 28 29
11 11 11 12 12 13 13 13 13 13 13 13 13 13 14 16 16 15 14 15 16 17 17 16 16 15 15 15 15 15 15 16 16 16 16 16 16 16 16 16 17 17 17 18 18 18 18 19 19 20 21 23 23 24 25 26 26 26 26 26 26 26 27 27 27 27 28 28 29
12 12 12 13 13 14 14 13 14 14 14 13 13 13 14 15 15 15 15 16 17 17 17 17 16 16 16 15 15 16 16 16 16 16 16 16 16 16 16 17 17 17 17 17 17 18 18 19 19 20 20 22 23 24 25 26 26 26 26 26 26 26 26 26 27 27 28 29 30
12 13 13 14 14 14 14 14 14 13 13 13 13 13 13 14 14 15 16 16 17 18 18 17 17 16 16 16 16 16 17 16 16 16 16 16 16 16 16 17 17 17 17 17 17 18 18 19 19 20 21 21 22 24 25 25 26 26 26 26 26 26 26 27 27 27 28 29 31
13 13 14 14 14 14 14 14 13 13 13 13 13 13 13 14 14 15 15 16 17 18 18 17 17 16 16 16 16 16 17 17 17 16 16 16 16 16 17 17 18 17 17 17 17 18 18 19 20 21 22 22 22 23 25 25 25 26 26 26 26 26 26 26 27 28 29 30 31
13 13 14 14 14 14 14 14 13 13 13 13 13 13 14 14 14 15 16 16 17 17 17 16 16 16 16 16 17 17 17 17 17 17 16 16 16 16 16 17 18 18 18 18 18 18 19 19 20 21 22 22 23 24 24 25 25 25 26 26 26 26 26 27 27 28 29 31 31
13 13 13 13 13 13 13 13 13 13 13 13 14 14 14 14 14 15 16 17 17 16 16 15 15 16 16 17 17 17 18 18 18 17 17 16 15 15 15 16 17 18 18 19 19 20 20 20 20 21 22 23 23 24 24 25 25 25 26 26 26 26 26 27 27 29 30 31 31
12 12 12 13 13 12 13 13 13 13 13 14 14 14 14 14 15 16 17 17 16 15 15 14 14 15 16 17 17 17 17 18 18 18 17 16 16 16 16 16 16 17 18 18 19 20 21 22 22 22 22 23 23 23 24 24 25 25 25 26 26 26 27 27 29 30 31 32 31
12 12 12 12 12 13 13 13 13 14 14 14 14 14 14 14 15 17 18 17 16 15 15 15 15 15 16 17 17 17 18 18 18 18 17 17 17 17 17 17 17 17 18 18 19 20 21 21 22 23 23 23 23 23 24 24 25 25 25 26 26 27 27 28 30 31 32 32 32
12 12 13 13 13 13 14 14 14 14 14 14 14 15 15 16 16 17 17 17 16 15 16 16 16 16 17 17 18 18 18 18 18 18 18 17 17 17 17 17 17 18 18 18 19 20 21 21 22 22 23 23 23 23 24 25 25 26 26 26 27 27 28 30 31 32 32 32 32
12 13 13 13 14 14 14 15 15 15 15 15 15 15 16 17 17 17 17 16 16 16 16 17 17 17 17 18 18 19 19 20 19 19 18 18 17 17 17 17 17 18 18 19 19 20 20 21 21 22 22 23 23 24 25 26 27 27 27 27 28 29 30 31 31 32 32 32 31
13 13 13 14 14 14 15 15 15 15 15 15 16 16 17 17 17 17 17 16 15 15 16 17 16 16 17 17 18 18 19 20 19 19 18 18 17 17 17 17 17 18 18 19 19 20 20 21 21 21 22 22 23 24 26 28 28 27 27 28 29 30 31 31 31 32 31 31 31
14 14 14 14 15 15 16 15 15 16 16 17 17 17 18 18 18 17 17 16 15 15 16 16 16 16 17 17 17 18 18 19 19 18 18 18 17 17 17 17 18 18 19 19 20 20 21 21 21 22 23 23 25 26 28 29 27 27 27 29 29 30 31 31 31 31 31 30 30
14 14 15 15 16 16 16 16 16 16 16 16 16 17 17 17 17 17 16 16 16 16 16 16 16 16 17 17 17 18 18 19 18 18 18 18 17 17 18 18 18 19 19 19 20 20 21 22 23 24 25 27 27 29 29 29 27 27 27 28 29 29 30 30 30 30 30 30 29
15 16 16 17 17 18 18 17 16 16 16 16 17 17 17 17 17 17 16 16 17 16 16 16 16 16 17 18 18 18 18 18 18 18 18 18 17 18 18 18 19 19 19 20 20 21 22 24 26 28 29 29 29 30 30 29 28 27 27 28 28 28 28 29 29 30 29 29 29
17 17 17 17 18 18 18 17 16 15 16 16 16 16 17 17 16 16 16 16 16 16 16 17 17 17 17 18 18 18 18 18 17 17 17 17 17 18 18 19 19 19 19 20 22 24 27 29 30 30 30 30 29 29 29 29 28 28 28 28 27 27 27 28 28 29 28 28 28
18 18 18 17 17 17 17 16 16 15 15 15 15 15 16 16 16 16 16 16 16 16 16 17 17 18 18 18 18 18 18 17 17 17 17 17 18 18 18 19 19 18 18 19 26 31 34 35 32 30 29 28 28 28 28 28 29 29 28 27 26 26 26 27 27 27 28 28 28
16 16 16 16 16 16 16 16 15 15 14 14 14 14 15 16 15 16 16 17 17 17 16 17 17 18 18 17 17 17 17 16 17 17 17 17 18 18 18 18 18 18 19 23 30 34 36 36 34 32 30 29 29 29 29 29 30 29 27 25 25 25 25 26 26 27 27 28 28
14 14 14 14 14 14 14 14 14 13 13 13 14 14 14 15 15 16 16 16 17 17 17 17 17 18 17 15 15 15 15 15 16 17 17 18 18 18 18 18 19 19 22 27 33 36 37 36 35 34 32 30 30 30 30 30 29 27 26 24 24 24 24 25 25 26 27 27 27
13 13 13 13 12 12 12 13 13 13 13 13 13 13 14 15 15 15 15 15 16 16 16 16 16 15 14 13 14 14 14 14 14 15 16 17 17 17 17 18 19 21 25 31 35 36 37 37 36 36 34 32 31 30 30 29 27 26 25 24 23 23 23 23 24 24 25 25 26
12 12 12 11 11 10 10 11 11 11 12 12 13 13 13 14 14 14 14 14 14 14 15 16 15 14 13 12 13 13 13 14 14 14 15 15 15 16 17 18 18 21 26 32 35 36 36 37 36 36 36 34 32 31 30 29 27 26 25 24 23 23 23 23 23 23 23 23 24
12 12 11 11 10 10 9 10 10 10 11 12 12 13 13 14 14 14 14 14 14 14 15 15 14 13 12 12 12 12 13 13 14 14 14 15 15 15 16 18 18 21 26 33 35 35 35 36 36 35 35 34 32 31 30 29 28 27 26 26 25 24 23 23 22 22 22 22 22
13 12 11 10 10 9 9 9 9 10 10 11 12 13 13 13 13 13 13 13 14 14 15 14 13 12 12 13 12 13 13 13 14 14 14 14 15 16 16 17 18 21 26 35 34 33 33 34 35 34 33 32 30 29 28 27 27 26 26 26 26 25 25 24 23 23 22 21 21
13 11 10 10 9 9 9 9 9 10 10 11 12 12 13 13 13 13 13 13 13 13 13 12 11 11 12 13 13 13 14 14 14 14 14 14 14 14 16 17 17 20 27 35 34 32 31 32 33 33 32 31 28 26 25 24 23 23 22 23 23 23 24 25 25 24 23 22 21
13 11 10 9 9 9 9 9 10 10 10 11 12 12 13 13 13 13 13 13 13 12 12 11 11 11 12 13 14 14 14 15 14 15 14 14 14 14 16 16 16 21 27 35 35 32 31 30 31 32 32 31 28 25 23 22 22 20 19 19 19 20 20 21 23 24 25 24 23
13 11 10 9 10 10 10 10 11 11 11 11 12 12 13 13 13 12 12 13 13 12 11 11 12 12 12 14 15 16 16 17 15 14 13 13 13 14 15 15 16 21 28 34 35 33 31 28 29 30 30 30 27 25 23 22 21 20 19 19 18 19 19 19 19 21 23 25 24
12 11 10 10 10 10 10 10 11 12 12 12 13 13 13 13 12 12 12 14 13 12 11 12 13 13 14 15 17 18 18 17 15 14 13 12 14 14 15 14 15 21 28 33 34 33 32 28 28 28 28 27 26 24 23 23 22 21 20 19 18 18 19 19 19 19 21 23 25
12 11 10 10 10 11 11 12 12 13 13 14 14 14 13 13 12 12 13 14 14 12 12 13 14 14 14 16 18 18 18 16 15 14 13 13 14 14 14 14 14 20 27 31 33 33 32 29 27 26 25 23 23 23 23 23 22 21 20 18 18 18 18 18 18 19 20 22 23
12 11 11 11 12 12 13 13 14 14 14 15 14 14 13 12 11 12 13 14 13 13 14 15 16 15 14 16 18 18 18 16 14 14 13 14 14 14 14 14 14 18 24 28 31 33 33 31 27 25 23 19 19 19 19 20 20 19 18 18 18 18 18 18 18 18 19 20 22
13 12 13 13 13 13 14 14 15 15 15 16 15 14 13 12 11 11 13 14 13 14 15 17 17 16 14 15 17 18 16 14 14 14 14 13 14 14 15 14 14 18 22 26 29 32 32 31 28 25 22 17 16 16 16 17 17 16 16 16 16 17 17 17 17 17 18 19 23
13 14 14 14 14 14 15 15 15 15 15 15 14 13 12 11 11 11 12 13 13 14 17 18 18 16 14 15 16 16 15 13 14 14 14 13 14 16 17 14 15 18 21 24 27 30 31 31 28 26 22 17 15 14 14 14 14 14 14 14 14 15 15 16 15 15 16 18 23
13 14 14 14 15 15 15 15 14 14 14 14 13 12 11 11 11 12 12 12 13 15 18 20 18 16 14 15 15 14 14 13 13 14 15 14 15 18 18 15 15 17 19 23 26 28 30 31 29 27 23 17 14 13 13 13 12 12 12 12 13 13 14 14 14 14 14 15 19
13 14 14 15 16 15 14 13 13 13 13 13 12 11 12 12 11 10 10 10 13 16 19 20 18 15 13 14 14 14 13 13 14 14 14 15 15 16 18 15 16 16 17 19 24 27 28 29 29 27 24 18 14 13 12 11 11 11 11 11 11 12 12 13 14 14 14 14 15